Flag for Germany Weather past 2 weeks in Garbsen, Lower Saxony, Germany

Now
59 °F

Fog.


Feels Like: 59 °F
Forecast: 59 / 82 °F
Wind: 5 mph from East

Location: Hannover

Current Time: Aug 1, 2014 at 4:09:00 AM

Latest Report: Aug 1, 2014 at 3:20 AM


Visibility: N/A

Pressure: 29.95 "Hg

Humidity: 88%

Dew point: 55 °F

Location of GarbsenLocation

Historic Weather in Garbsen — Graph

°F

Garbsen temperature yesterday

Maximum temperature yesterday: 75 °F (at 4:20 PM)
Minimum temperature yesterday: 57 °F (at 1:20 AM)
Average temperature yesterday: 66 °F

Past Weeks' High & Low Weather Summary

 TemperatureHumidityPressure
High91 °F (Jul 19, 2:50 PM)100% (Jul 17, 4:20 AM)30.18 "Hg (Jul 17, 4:20 AM)
Low54 °F (Jul 17, 4:20 AM)26% (Jul 19, 2:20 PM)29.74 "Hg (Jul 29, 6:20 PM)
Average70 °F74%29.96 "Hg
* Reported Jul 17 2:20 AM — Aug 1 2:50 AM, Garbsen, Weather by CustomWeather, © 2014

Note: Actual official high and low records may vary slightly from our data, if they occured in-between our weather recording intervals... More about our weather records

Advertising

Garbsen weather history for previous 24 hours

 ConditionsComfort  
Time TempWeatherWind HumidityBarometerVisibility
2:50 AM
Aug 1
59 °FFog.5 mph88%29.95 "HgN/A
2:20 AM59 °FFog.3 mph88%29.95 "HgN/A
1:50 AM61 °FFog.5 mph83%29.95 "HgN/A
1:20 AM61 °FClear.3 mph83%29.95 "Hg10 mi
12:50 AM63 °FClear.5 mph77%29.95 "Hg10 mi
12:20 AM63 °FClear.2 mph77%29.95 "Hg10 mi
11:50 PM
Jul 31
64 °FClear.1 mph73%29.95 "Hg10 mi
11:20 PM64 °FClear.3 mph73%29.95 "Hg10 mi
10:50 PM64 °FClear.2 mph73%29.95 "Hg10 mi
10:20 PM64 °FClear.3 mph73%29.95 "Hg10 mi
9:50 PM64 °FSunny.2 mph78%29.95 "Hg10 mi
9:20 PM66 °FSunny.2 mph73%29.95 "Hg10 mi
8:50 PM68 °FSunny.3 mph69%29.95 "Hg10 mi
8:20 PM72 °FPassing clouds.3 mph61%29.95 "HgN/A
7:50 PM73 °FSunny.3 mph50%29.95 "Hg10 mi
7:20 PM75 °FPassing clouds.3 mph47%29.95 "HgN/A
6:50 PM75 °FPassing clouds.5 mph47%29.95 "HgN/A
6:20 PM75 °FPassing clouds.6 mph47%29.95 "HgN/A
5:50 PM75 °FPassing clouds.7 mph47%29.95 "HgN/A
5:20 PM75 °FPassing clouds.3 mph50%29.95 "HgN/A
4:50 PM75 °FPassing clouds.8 mph47%29.95 "HgN/A
4:20 PM75 °FPassing clouds.7 mph50%29.98 "HgN/A
3:50 PM73 °FPassing clouds.6 mph50%29.98 "HgN/A
3:20 PM73 °FScattered clouds.5 mph50%29.98 "HgN/A
2:50 PM73 °FPassing clouds.8 mph50%29.98 "HgN/A
2:20 PM72 °FPassing clouds.7 mph57%29.98 "HgN/A
1:50 PM72 °FPassing clouds.8 mph57%29.98 "HgN/A
1:20 PM72 °FPassing clouds.10 mph57%29.98 "HgN/A
12:50 PM70 °FPassing clouds.8 mph64%29.98 "HgN/A
12:20 PM70 °FPassing clouds.7 mph64%29.98 "HgN/A
11:50 AM68 °FScattered clouds.7 mph69%30.01 "HgN/A
11:20 AM68 °FScattered clouds.7 mph69%30.01 "HgN/A
10:50 AM66 °FScattered clouds.7 mph73%30.01 "HgN/A
10:20 AM66 °FScattered clouds.9 mph73%30.01 "HgN/A
9:50 AM64 °FScattered clouds.8 mph78%30.01 "HgN/A
9:20 AM64 °FScattered clouds.10 mph78%30.01 "HgN/A
8:50 AM63 °FScattered clouds.9 mph83%30.01 "HgN/A
8:20 AM63 °FScattered clouds.7 mph88%29.98 "HgN/A
7:50 AM61 °FScattered clouds.5 mph94%29.98 "HgN/A
7:20 AM61 °FScattered clouds.3 mph88%29.98 "HgN/A
6:50 AM59 °FScattered clouds.3 mph94%29.98 "HgN/A
6:20 AM57 °FPassing clouds.3 mph94%29.98 "HgN/A
5:50 AM57 °FFog.5 mph94%29.95 "HgN/A
5:20 AM57 °FFog.5 mph100%29.95 "HgN/A
4:50 AM57 °FPassing clouds.3 mph94%29.95 "HgN/A
4:20 AM59 °FPassing clouds.5 mph94%29.95 "HgN/A
Weather by CustomWeather, © 2014

See weather overviewHow to use our weather pages